Private Wetterstation Wechselburg
Wetterdaten: Dienstag, 07.12.2021
Datum Zeit Temp. +2m Bodentemp. Temp.+5cm Temp. Wind Windchill X Diff Temp. Feuchte +2m Feuchte +5cm Luftdruck Regen Wind Richtung Richtung Sonnenschein Taupunkt Windchill Windben
07.12.2021 00:00 -0,6 C 6,6 C -0,9 C -0,8 C -1,2 C 0,0 C 88 % 93 % 1014,5 hPa 0,0 l/m 0,0 km/h (0 Bft) O 90 0 min -2,3 C -1,2 C 0,0 km/h (0 Bft)
07.12.2021 00:05 -0,5 C 6,6 C -0,9 C -0,7 C -1,2 C 0,0 C 88 % 93 % 1014,5 hPa 0,0 l/m 0,0 km/h (0 Bft) O-NO 67 0 min -2,2 C -1,2 C 0,0 km/h (0 Bft)
07.12.2021 00:10 -0,6 C 6,6 C -0,9 C -0,8 C -1,1 C 0,0 C 88 % 93 % 1014,8 hPa 0,0 l/m 0,0 km/h (0 Bft) O 90 0 min -2,3 C -1,1 C 0,0 km/h (0 Bft)
07.12.2021 00:15 -0,6 C 6,5 C -0,9 C -0,8 C -1,1 C 0,0 C 88 % 93 % 1014,8 hPa 0,0 l/m 0,0 km/h (0 Bft) O-SO 112 0 min -2,3 C -1,1 C 0,0 km/h (0 Bft)
07.12.2021 00:20 -0,5 C 6,5 C -0,9 C -0,7 C -1,0 C 0,0 C 88 % 93 % 1014,8 hPa 0,0 l/m 0,0 km/h (0 Bft) O 90 0 min -2,2 C -1,0 C 0,0 km/h (0 Bft)
07.12.2021 00:25 -0,5 C 6,6 C -0,8 C -0,7 C -1,0 C 0,0 C 88 % 93 % 1014,8 hPa 0,0 l/m 0,0 km/h (0 Bft) NO 45 0 min -2,2 C -1,0 C 0,0 km/h (0 Bft)
07.12.2021 00:30 -0,5 C 6,6 C -0,8 C -0,6 C -0,9 C 0,0 C 88 % 93 % 1014,2 hPa 0,0 l/m 0,0 km/h (0 Bft) O 90 0 min -2,2 C -0,9 C 0,0 km/h (0 Bft)
07.12.2021 00:35 -0,5 C 6,6 C -0,8 C -0,6 C -0,9 C 0,0 C 88 % 93 % 1014,2 hPa 0,0 l/m 0,0 km/h (0 Bft) O 90 0 min -2,2 C -0,9 C 0,0 km/h (0 Bft)
07.12.2021 00:40 -0,5 C 6,6 C -0,8 C -0,6 C -0,9 C 0,0 C 88 % 93 % 1014,2 hPa 0,0 l/m 0,0 km/h (0 Bft) NO 45 0 min -2,2 C -0,9 C 0,0 km/h (0 Bft)
07.12.2021 00:45 -0,5 C 6,6 C -0,8 C -0,6 C -0,9 C 0,0 C 88 % 93 % 1014,2 hPa 0,0 l/m 0,0 km/h (0 Bft) NO 45 0 min -2,2 C -0,9 C 0,0 km/h (0 Bft)
07.12.2021 00:50 -0,5 C 6,5 C -0,8 C -0,6 C -0,9 C 0,0 C 88 % 93 % 1013,7 hPa 0,0 l/m 0,0 km/h (0 Bft) O 90 0 min -2,2 C -0,9 C 0,0 km/h (0 Bft)
07.12.2021 00:55 -0,5 C 6,5 C -0,8 C -0,6 C -0,9 C 0,0 C 88 % 93 % 1013,7 hPa 0,0 l/m 0,0 km/h (0 Bft) NO 45 0 min -2,2 C -0,9 C 0,0 km/h (0 Bft)
07.12.2021 01:00 -0,5 C 6,6 C -0,9 C -0,7 C -1,0 C 0,0 C 88 % 93 % 1013,7 hPa 0,0 l/m 0,0 km/h (0 Bft) NO 45 0 min -2,2 C -1,0 C 0,0 km/h (0 Bft)
07.12.2021 01:05 -0,5 C 6,6 C -0,8 C -0,6 C -0,9 C 0,0 C 88 % 93 % 1013,7 hPa 0,0 l/m 0,0 km/h (0 Bft) NO 45 0 min -2,2 C -0,9 C 0,0 km/h (0 Bft)
07.12.2021 01:10 -0,5 C 6,6 C -0,8 C -0,6 C -0,9 C 0,0 C 88 % 93 % 1013,7 hPa 0,0 l/m 0,0 km/h (0 Bft) O-NO 67 0 min -2,2 C -0,9 C 0,0 km/h (0 Bft)
07.12.2021 01:15 -0,5 C 6,6 C -0,8 C -0,7 C -1,0 C 0,0 C 88 % 93 % 1013,7 hPa 0,0 l/m 0,0 km/h (0 Bft) O-NO 67 0 min -2,2 C -1,0 C 0,0 km/h (0 Bft)
07.12.2021 01:20 -0,5 C 6,6 C -0,9 C -0,7 C -1,0 C 0,0 C 88 % 93 % 1013,7 hPa 0,0 l/m 0,0 km/h (0 Bft) NO 45 0 min -2,2 C -1,0 C 0,0 km/h (0 Bft)
07.12.2021 01:25 -0,5 C 6,6 C -0,8 C -0,7 C -1,0 C 0,0 C 88 % 93 % 1013,7 hPa 0,0 l/m 0,0 km/h (0 Bft) NO 45 0 min -2,2 C -1,0 C 0,0 km/h (0 Bft)
07.12.2021 01:30 -0,5 C 6,5 C -0,8 C -0,7 C -1,0 C 0,0 C 88 % 93 % 1013,4 hPa 0,0 l/m 0,0 km/h (0 Bft) O-NO 67 0 min -2,2 C -1,0 C 0,0 km/h (0 Bft)
07.12.2021 01:35 -0,5 C 6,5 C -0,8 C -0,6 C -0,9 C 0,0 C 88 % 93 % 1013,4 hPa 0,0 l/m 0,0 km/h (0 Bft) O-NO 67 0 min -2,2 C -0,9 C 0,0 km/h (0 Bft)
07.12.2021 01:40 -0,5 C 6,5 C -0,7 C -0,6 C -0,9 C 0,0 C 88 % 93 % 1013,4 hPa 0,0 l/m 0,0 km/h (0 Bft) NO 45 0 min -2,2 C -0,9 C 0,0 km/h (0 Bft)
07.12.2021 01:45 -0,5 C 6,6 C -0,8 C -0,6 C -0,9 C 0,0 C 88 % 93 % 1013,4 hPa 0,0 l/m 0,0 km/h (0 Bft) NO 45 0 min -2,2 C -0,9 C 0,0 km/h (0 Bft)
07.12.2021 01:50 -0,5 C 6,5 C -0,8 C -0,6 C -0,9 C 0,0 C 88 % 93 % 1012,9 hPa 0,0 l/m 0,0 km/h (0 Bft) NO 45 0 min -2,2 C -0,9 C 0,0 km/h (0 Bft)
07.12.2021 01:55 -0,5 C 6,5 C -0,8 C -0,6 C -0,8 C 0,0 C 88 % 93 % 1012,9 hPa 0,0 l/m 0,5 km/h (0 Bft) O-NO 67 0 min -2,2 C -0,8 C 2,3 km/h (1 Bft)
07.12.2021 02:00 -0,3 C 6,5 C -0,9 C -0,5 C -0,8 C 0,0 C 89 % 93 % 1012,9 hPa 0,0 l/m 0,5 km/h (0 Bft) O-NO 67 0 min -1,9 C -0,8 C 0,0 km/h (0 Bft)
07.12.2021 02:05 -0,5 C 6,5 C -1,0 C -0,7 C -1,2 C 0,0 C 89 % 93 % 1012,9 hPa 0,0 l/m 0,0 km/h (0 Bft) O-NO 67 0 min -2,1 C -1,2 C 0,0 km/h (0 Bft)
07.12.2021 02:10 -0,5 C 6,5 C -1,1 C -0,8 C -1,4 C 0,0 C 88 % 93 % 1012,9 hPa 0,0 l/m 0,0 km/h (0 Bft) O-SO 112 0 min -2,2 C -1,4 C 0,0 km/h (0 Bft)
07.12.2021 02:15 -0,5 C 6,5 C -1,2 C -0,9 C -1,7 C 0,0 C 88 % 93 % 1012,9 hPa 0,0 l/m 0,0 km/h (0 Bft) O-SO 112 0 min -2,2 C -1,7 C 0,0 km/h (0 Bft)
07.12.2021 02:20 -0,5 C 6,5 C -1,3 C -0,9 C -1,8 C 0,0 C 88 % 93 % 1012,9 hPa 0,0 l/m 0,0 km/h (0 Bft) NO 45 0 min -2,2 C -1,8 C 0,0 km/h (0 Bft)
07.12.2021 02:25 -0,7 C 6,5 C -1,4 C -1,1 C -1,9 C 0,0 C 88 % 93 % 1012,9 hPa 0,0 l/m 0,0 km/h (0 Bft) NO 45 0 min -2,4 C -1,9 C 0,0 km/h (0 Bft)
07.12.2021 02:30 -0,7 C 6,5 C -1,5 C -1,1 C -2,0 C 0,0 C 88 % 93 % 1012,7 hPa 0,0 l/m 0,0 km/h (0 Bft) NO 45 0 min -2,4 C -2,0 C 0,0 km/h (0 Bft)
07.12.2021 02:35 -0,9 C 6,5 C -1,5 C -1,4 C -2,3 C 0,0 C 88 % 93 % 1012,7 hPa 0,0 l/m 0,0 km/h (0 Bft) NO 45 0 min -2,6 C -2,3 C 0,0 km/h (0 Bft)
07.12.2021 02:40 -0,9 C 6,5 C -1,6 C -1,4 C -2,4 C 0,0 C 88 % 93 % 1012,7 hPa 0,0 l/m 0,0 km/h (0 Bft) NO 45 0 min -2,6 C -2,4 C 0,0 km/h (0 Bft)
07.12.2021 02:45 -0,9 C 6,5 C -1,7 C -1,4 C -2,5 C 0,0 C 88 % 93 % 1012,7 hPa 0,0 l/m 0,0 km/h (0 Bft) NO 45 0 min -2,6 C -2,5 C 0,0 km/h (0 Bft)
07.12.2021 02:50 -0,9 C 6,5 C -1,7 C -1,4 C -2,5 C 0,0 C 88 % 93 % 1012,5 hPa 0,0 l/m 0,0 km/h (0 Bft) NO 45 0 min -2,6 C -2,5 C 0,0 km/h (0 Bft)
07.12.2021 02:55 -1,1 C 6,5 C -1,8 C -1,6 C -2,5 C 0,0 C 88 % 93 % 1012,5 hPa 0,0 l/m 0,0 km/h (0 Bft) NO 45 0 min -2,8 C -2,5 C 0,0 km/h (0 Bft)
07.12.2021 03:00 -1,1 C 6,5 C -1,8 C -1,6 C -2,5 C 0,0 C 88 % 93 % 1012,5 hPa 0,0 l/m 0,0 km/h (0 Bft) NO 45 0 min -2,8 C -2,5 C 0,0 km/h (0 Bft)
07.12.2021 03:05 -1,2 C 6,5 C -1,9 C -1,6 C -2,5 C 0,0 C 88 % 93 % 1012,5 hPa 0,0 l/m 0,0 km/h (0 Bft) NO 45 0 min -2,9 C -2,5 C 0,0 km/h (0 Bft)
07.12.2021 03:10 -1,1 C 6,5 C -2,0 C -1,6 C -2,5 C 0,0 C 88 % 93 % 1012,4 hPa 0,0 l/m 0,0 km/h (0 Bft) NO 45 0 min -2,8 C -2,5 C 0,0 km/h (0 Bft)
07.12.2021 03:15 -1,3 C 6,5 C -2,1 C -1,7 C -2,6 C 0,0 C 88 % 93 % 1012,4 hPa 0,0 l/m 0,0 km/h (0 Bft) N-NO 22 0 min -3,0 C -2,6 C 0,0 km/h (0 Bft)
07.12.2021 03:20 -1,3 C 6,5 C -2,1 C -1,7 C -2,5 C 0,0 C 88 % 93 % 1012,4 hPa 0,0 l/m 0,0 km/h (0 Bft) NO 45 0 min -3,0 C -2,5 C 0,0 km/h (0 Bft)
07.12.2021 03:25 -1,3 C 6,5 C -2,1 C -1,7 C -2,5 C 0,0 C 88 % 93 % 1012,4 hPa 0,0 l/m 0,0 km/h (0 Bft) NO 45 0 min -3,0 C -2,5 C 0,0 km/h (0 Bft)
07.12.2021 03:30 -1,3 C 6,5 C -2,2 C -1,7 C -2,5 C 0,0 C 89 % 93 % 1012,4 hPa 0,0 l/m 0,0 km/h (0 Bft) NO 45 0 min -2,9 C -2,5 C 0,0 km/h (0 Bft)
07.12.2021 03:35 -1,3 C 6,5 C -2,2 C -1,7 C -2,5 C 0,0 C 89 % 93 % 1012,4 hPa 0,0 l/m 0,0 km/h (0 Bft) NO 45 0 min -2,9 C -2,5 C 0,0 km/h (0 Bft)
07.12.2021 03:40 -1,3 C 6,5 C -2,4 C -1,7 C -2,5 C 0,0 C 89 % 93 % 1012,4 hPa 0,0 l/m 0,0 km/h (0 Bft) NO 45 0 min -2,9 C -2,5 C 0,0 km/h (0 Bft)
07.12.2021 03:45 -1,5 C 6,5 C -2,5 C -1,9 C -2,6 C 0,0 C 89 % 93 % 1012,4 hPa 0,0 l/m 0,0 km/h (0 Bft) NO 45 0 min -3,1 C -2,6 C 0,0 km/h (0 Bft)
07.12.2021 03:50 -1,6 C 6,5 C -2,5 C -1,9 C -2,6 C 0,0 C 89 % 93 % 1011,9 hPa 0,0 l/m 0,0 km/h (0 Bft) NO 45 0 min -3,2 C -2,6 C 0,0 km/h (0 Bft)
07.12.2021 03:55 -1,7 C 6,5 C -2,5 C -2,1 C -2,8 C 0,0 C 89 % 93 % 1011,9 hPa 0,0 l/m 0,0 km/h (0 Bft) NO 45 0 min -3,3 C -2,8 C 0,0 km/h (0 Bft)
07.12.2021 04:00 -1,7 C 6,5 C -2,5 C -2,1 C -2,8 C 0,0 C 89 % 93 % 1011,9 hPa 0,0 l/m 0,0 km/h (0 Bft) NO 45 0 min -3,3 C -2,8 C 0,0 km/h (0 Bft)
07.12.2021 04:05 -1,7 C 6,5 C -2,5 C -2,1 C -3,0 C 0,0 C 89 % 94 % 1011,9 hPa 0,0 l/m 0,0 km/h (0 Bft) NO 45 0 min -3,3 C -3,0 C 0,0 km/h (0 Bft)
07.12.2021 04:10 -1,7 C 6,5 C -2,6 C -2,1 C -3,0 C 0,0 C 89 % 94 % 1012,2 hPa 0,0 l/m 0,0 km/h (0 Bft) NO 45 0 min -3,3 C -3,0 C 0,0 km/h (0 Bft)
07.12.2021 04:15 -1,7 C 6,4 C -2,6 C -2,1 C -3,0 C 0,0 C 89 % 94 % 1012,2 hPa 0,0 l/m 0,0 km/h (0 Bft) NO 45 0 min -3,3 C -3,0 C 0,0 km/h (0 Bft)
07.12.2021 04:20 -1,7 C 6,4 C -2,6 C -2,1 C -2,9 C 0,0 C 89 % 94 % 1012,2 hPa 0,0 l/m 0,0 km/h (0 Bft) NO 45 0 min -3,3 C -2,9 C 0,0 km/h (0 Bft)
07.12.2021 04:25 -1,7 C 6,4 C -2,6 C -2,1 C -2,9 C 0,0 C 89 % 94 % 1012,2 hPa 0,0 l/m 0,0 km/h (0 Bft) N-NO 22 0 min -3,3 C -2,9 C 0,0 km/h (0 Bft)
07.12.2021 04:30 -1,7 C 6,4 C -2,5 C -2,1 C -2,9 C 0,0 C 89 % 94 % 1011,6 hPa 0,0 l/m 0,0 km/h (0 Bft) NO 45 0 min -3,3 C -2,9 C 0,0 km/h (0 Bft)
07.12.2021 04:35 -1,7 C 6,4 C -2,5 C -2,1 C -2,9 C 0,0 C 89 % 94 % 1011,6 hPa 0,0 l/m 0,0 km/h (0 Bft) NO 45 0 min -3,3 C -2,9 C 0,0 km/h (0 Bft)
07.12.2021 04:40 -1,7 C 6,4 C -2,5 C -2,1 C -2,8 C 0,0 C 89 % 94 % 1011,6 hPa 0,0 l/m 0,0 km/h (0 Bft) NO 45 0 min -3,3 C -2,8 C 0,0 km/h (0 Bft)
07.12.2021 04:45 -1,7 C 6,4 C -2,5 C -2,1 C -2,8 C 0,0 C 89 % 94 % 1011,6 hPa 0,0 l/m 0,2 km/h (0 Bft) N-NO 22 0 min -3,3 C -2,8 C 1,6 km/h (1 Bft)
07.12.2021 04:50 -1,6 C 6,4 C -2,5 C -2,0 C -2,7 C 0,0 C 89 % 94 % 1011,6 hPa 0,0 l/m 0,2 km/h (0 Bft) NO 45 0 min -3,2 C -2,7 C 0,0 km/h (0 Bft)
07.12.2021 04:55 -1,5 C 6,4 C -2,4 C -1,9 C -2,6 C 0,0 C 89 % 94 % 1011,6 hPa 0,0 l/m 0,2 km/h (0 Bft) S 180 0 min -3,1 C -2,6 C 0,0 km/h (0 Bft)
07.12.2021 05:00 -1,3 C 6,4 C -2,4 C -1,7 C -2,6 C 0,0 C 89 % 94 % 1011,6 hPa 0,0 l/m 0,0 km/h (0 Bft) S 180 0 min -2,9 C -2,6 C 0,0 km/h (0 Bft)
07.12.2021 05:05 -1,4 C 6,3 C -2,4 C -1,8 C -2,6 C 0,0 C 89 % 94 % 1011,6 hPa 0,0 l/m 0,3 km/h (0 Bft) S 180 0 min -3,0 C -2,6 C 1,8 km/h (1 Bft)
07.12.2021 05:10 -1,3 C 6,3 C -2,4 C -1,7 C -2,5 C 0,0 C 89 % 94 % 1011,6 hPa 0,0 l/m 0,3 km/h (0 Bft) S 180 0 min -2,9 C -2,5 C 0,0 km/h (0 Bft)
07.12.2021 05:15 -1,3 C 6,4 C -2,5 C -1,8 C -2,7 C 0,0 C 89 % 94 % 1011,6 hPa 0,0 l/m 0,0 km/h (0 Bft) S 180 0 min -2,9 C -2,7 C 0,0 km/h (0 Bft)
07.12.2021 05:20 -1,3 C 6,3 C -2,5 C -1,7 C -2,6 C 0,0 C 89 % 94 % 1011,6 hPa 0,0 l/m 0,0 km/h (0 Bft) S 180 0 min -2,9 C -2,6 C 0,0 km/h (0 Bft)
07.12.2021 05:25 -1,5 C 6,3 C -2,5 C -1,9 C -2,7 C 0,0 C 89 % 94 % 1011,6 hPa 0,0 l/m 0,0 km/h (0 Bft) S 180 0 min -3,1 C -2,7 C 0,0 km/h (0 Bft)
07.12.2021 05:30 -1,5 C 6,3 C -2,5 C -1,9 C -2,8 C 0,0 C 89 % 94 % 1011,4 hPa 0,0 l/m 0,0 km/h (0 Bft) S 180 0 min -3,1 C -2,8 C 0,0 km/h (0 Bft)
07.12.2021 05:35 -1,5 C 6,3 C -2,5 C -2,0 C -2,9 C 0,0 C 89 % 94 % 1011,4 hPa 0,0 l/m 0,0 km/h (0 Bft) NO 45 0 min -3,1 C -2,9 C 0,0 km/h (0 Bft)
07.12.2021 05:40 -1,5 C 6,3 C -2,5 C -2,0 C -2,9 C 0,0 C 89 % 94 % 1011,4 hPa 0,0 l/m 0,0 km/h (0 Bft) NO 45 0 min -3,1 C -2,9 C 0,0 km/h (0 Bft)
07.12.2021 05:45 -1,5 C 6,3 C -2,5 C -1,9 C -2,8 C 0,0 C 89 % 94 % 1011,4 hPa 0,0 l/m 0,0 km/h (0 Bft) NO 45 0 min -3,1 C -2,8 C 0,0 km/h (0 Bft)
07.12.2021 05:50 -1,5 C 6,3 C -2,5 C -1,9 C -2,8 C 0,0 C 89 % 94 % 1011,4 hPa 0,0 l/m 0,0 km/h (0 Bft) NO 45 0 min -3,1 C -2,8 C 0,0 km/h (0 Bft)
07.12.2021 05:55 -1,5 C 6,3 C -2,5 C -1,9 C -2,6 C 0,0 C 89 % 94 % 1011,4 hPa 0,0 l/m 0,0 km/h (0 Bft) O 90 0 min -3,1 C -2,6 C 0,0 km/h (0 Bft)
07.12.2021 06:00 -1,5 C 6,3 C -2,5 C -1,9 C -2,7 C 0,0 C 89 % 94 % 1011,4 hPa 0,0 l/m 0,0 km/h (0 Bft) N 360 0 min -3,1 C -2,7 C 0,0 km/h (0 Bft)
07.12.2021 06:05 -1,3 C 6,3 C -2,5 C -1,8 C -2,8 C 0,0 C 89 % 94 % 1011,4 hPa 0,0 l/m 0,0 km/h (0 Bft) N 360 0 min -2,9 C -2,8 C 0,0 km/h (0 Bft)
07.12.2021 06:10 -1,5 C 6,3 C -2,5 C -1,9 C -2,8 C 0,0 C 89 % 94 % 1011,3 hPa 0,0 l/m 0,0 km/h (0 Bft) W 270 0 min -3,1 C -2,8 C 0,0 km/h (0 Bft)
07.12.2021 06:15 -1,5 C 6,3 C -2,5 C -1,9 C -2,8 C 0,0 C 89 % 94 % 1011,3 hPa 0,0 l/m 0,0 km/h (0 Bft) SW 225 0 min -3,1 C -2,8 C 0,0 km/h (0 Bft)
07.12.2021 06:20 -1,5 C 6,3 C -2,5 C -1,9 C -2,8 C 0,0 C 89 % 94 % 1011,3 hPa 0,0 l/m 0,0 km/h (0 Bft) SO 135 0 min -3,1 C -2,8 C 0,0 km/h (0 Bft)
07.12.2021 06:25 -1,5 C 6,3 C -2,5 C -1,9 C -2,8 C 0,0 C 89 % 94 % 1011,3 hPa 0,0 l/m 0,0 km/h (0 Bft) SO 135 0 min -3,1 C -2,8 C 0,0 km/h (0 Bft)
07.12.2021 06:30 -1,5 C 6,2 C -2,5 C -1,9 C -2,8 C 0,0 C 89 % 94 % 1011,4 hPa 0,0 l/m 0,0 km/h (0 Bft) O 90 0 min -3,1 C -2,8 C 0,0 km/h (0 Bft)
07.12.2021 06:35 -1,3 C 6,2 C -2,2 C -1,7 C -2,5 C 0,0 C 89 % 94 % 1011,4 hPa 0,0 l/m 0,3 km/h (0 Bft) O-NO 67 0 min -2,9 C -2,5 C 0,0 km/h (0 Bft)
07.12.2021 06:40 -1,3 C 6,2 C -2,1 C -1,7 C -2,4 C 0,0 C 89 % 94 % 1011,4 hPa 0,0 l/m 1,0 km/h (0 Bft) O 90 0 min -2,9 C -2,4 C 0,0 km/h (0 Bft)
07.12.2021 06:45 -1,1 C 6,2 C -2,1 C -1,5 C -2,2 C 0,0 C 89 % 94 % 1011,4 hPa 0,0 l/m 1,4 km/h (1 Bft) O-NO 67 0 min -2,7 C -2,2 C 4,2 km/h (1 Bft)
07.12.2021 06:50 -1,2 C 6,2 C -2,1 C -1,5 C -2,2 C 0,0 C 89 % 94 % 1011,8 hPa 0,0 l/m 1,1 km/h (1 Bft) O-NO 67 0 min -2,8 C -2,2 C 1,6 km/h (1 Bft)
07.12.2021 06:55 -1,2 C 6,2 C -2,1 C -1,5 C -2,1 C 0,0 C 89 % 94 % 1011,8 hPa 0,0 l/m 0,6 km/h (0 Bft) O-NO 67 0 min -2,8 C -2,1 C 0,0 km/h (0 Bft)
07.12.2021 07:00 -1,1 C 6,2 C -2,1 C -1,4 C -2,1 C 0,0 C 89 % 94 % 1011,8 hPa 0,0 l/m 0,3 km/h (0 Bft) O-NO 67 0 min -2,7 C -2,1 C 0,0 km/h (0 Bft)
07.12.2021 07:05 -1,1 C 6,2 C -2,1 C -1,5 C -2,2 C 0,0 C 89 % 94 % 1011,8 hPa 0,0 l/m 0,0 km/h (0 Bft) NO 45 0 min -2,7 C -2,2 C 0,0 km/h (0 Bft)
07.12.2021 07:10 -1,1 C 6,2 C -2,1 C -1,5 C -2,2 C 0,0 C 89 % 94 % 1011,6 hPa 0,0 l/m 0,0 km/h (0 Bft) O-SO 112 0 min -2,7 C -2,2 C 0,0 km/h (0 Bft)
07.12.2021 07:15 -1,1 C 6,2 C -2,1 C -1,5 C -2,2 C 0,0 C 89 % 94 % 1011,6 hPa 0,0 l/m 0,0 km/h (0 Bft) NO 45 0 min -2,7 C -2,2 C 0,0 km/h (0 Bft)
07.12.2021 07:20 -0,9 C 6,2 C -2,0 C -1,3 C -2,1 C 0,0 C 89 % 94 % 1011,6 hPa 0,0 l/m 0,0 km/h (0 Bft) NO 45 0 min -2,5 C -2,1 C 0,0 km/h (0 Bft)
07.12.2021 07:25 -1,0 C 6,2 C -2,0 C -1,3 C -2,0 C 0,0 C 89 % 94 % 1011,6 hPa 0,0 l/m 0,0 km/h (0 Bft) O-NO 67 0 min -2,6 C -2,0 C 0,0 km/h (0 Bft)
07.12.2021 07:30 -0,9 C 6,2 C -1,9 C -1,2 C -1,9 C 0,0 C 89 % 94 % 1011,4 hPa 0,0 l/m 0,0 km/h (0 Bft) O-NO 67 0 min -2,5 C -1,9 C 0,0 km/h (0 Bft)
07.12.2021 07:35 -0,9 C 6,2 C -1,9 C -1,2 C -1,9 C 0,0 C 89 % 94 % 1011,4 hPa 0,0 l/m 0,2 km/h (0 Bft) NO 45 0 min -2,5 C -1,9 C 0,0 km/h (0 Bft)
07.12.2021 07:40 -0,9 C 6,2 C -1,9 C -1,2 C -1,8 C 0,0 C 89 % 94 % 1011,4 hPa 0,0 l/m 0,5 km/h (0 Bft) O-SO 112 0 min -2,5 C -1,8 C 0,0 km/h (0 Bft)
07.12.2021 07:45 -0,7 C 6,2 C -1,8 C -1,0 C -1,7 C 0,0 C 89 % 94 % 1011,4 hPa 0,0 l/m 0,3 km/h (0 Bft) O-NO 67 0 min -2,3 C -1,7 C 0,0 km/h (0 Bft)
07.12.2021 07:50 -0,8 C 6,2 C -1,7 C -1,1 C -1,6 C 0,0 C 88 % 94 % 1011,5 hPa 0,0 l/m 0,2 km/h (0 Bft) O-NO 67 0 min -2,5 C -1,6 C 0,0 km/h (0 Bft)
07.12.2021 07:55 -0,7 C 6,2 C -1,6 C -0,9 C -1,4 C 0,0 C 88 % 94 % 1011,5 hPa 0,0 l/m 0,3 km/h (0 Bft) O-SO 112 0 min -2,4 C -1,4 C 2,3 km/h (1 Bft)
07.12.2021 08:00 -0,5 C 6,2 C -1,5 C -0,8 C -1,3 C 0,0 C 88 % 94 % 1011,5 hPa 0,0 l/m 0,6 km/h (0 Bft) O-NO 67 0 min -2,2 C -1,3 C 1,6 km/h (1 Bft)
07.12.2021 08:05 -0,5 C 6,2 C -1,3 C -0,7 C -1,1 C 0,0 C 88 % 93 % 1011,5 hPa 0,0 l/m 1,1 km/h (1 Bft) O-NO 67 0 min -2,2 C -1,1 C 3,2 km/h (1 Bft)
07.12.2021 08:10 -0,4 C 6,2 C -1,2 C -0,6 C -1,0 C 0,0 C 89 % 93 % 1011,4 hPa 0,0 l/m 1,4 km/h (1 Bft) O-NO 67 0 min -2,0 C -1,0 C 4,2 km/h (1 Bft)
07.12.2021 08:15 -0,3 C 6,2 C -1,0 C -0,4 C -0,7 C 0,0 C 89 % 94 % 1011,4 hPa 0,0 l/m 1,1 km/h (1 Bft) O 90 0 min -1,9 C -0,7 C 0,0 km/h (0 Bft)
07.12.2021 08:20 -0,1 C 6,2 C -0,9 C -0,3 C -0,6 C 0,0 C 89 % 94 % 1011,4 hPa 0,0 l/m 0,6 km/h (0 Bft) O-NO 67 0 min -1,7 C -0,6 C 1,9 km/h (1 Bft)
07.12.2021 08:25 -0,1 C 6,2 C -0,8 C -0,2 C -0,5 C 0,0 C 89 % 93 % 1011,4 hPa 0,0 l/m 1,0 km/h (0 Bft) O-NO 67 0 min -1,7 C -0,5 C 6,6 km/h (2 Bft)
07.12.2021 08:30 -0,1 C 6,2 C -0,7 C -0,2 C -0,4 C 0,0 C 88 % 93 % 1011,4 hPa 0,0 l/m 1,1 km/h (1 Bft) O-SO 112 0 min -1,8 C -0,4 C 0,0 km/h (0 Bft)
07.12.2021 08:35 0,0 C 6,2 C -0,6 C -0,1 C -0,3 C 0,0 C 88 % 93 % 1011,4 hPa 0,0 l/m 0,6 km/h (0 Bft) NO 45 0 min -1,7 C -0,3 C 0,0 km/h (0 Bft)
07.12.2021 08:40 0,1 C 6,2 C -0,5 C 0,0 C -0,1 C 0,0 C 88 % 93 % 1011,4 hPa 0,0 l/m 0,6 km/h (0 Bft) O-NO 67 0 min -1,6 C -0,1 C 4,8 km/h (1 Bft)
07.12.2021 08:45 0,3 C 6,2 C -0,4 C 0,2 C 0,1 C 0,0 C 88 % 93 % 1011,4 hPa 0,0 l/m 0,6 km/h (0 Bft) O-SO 112 0 min -1,4 C 0,1 C 0,0 km/h (0 Bft)
07.12.2021 08:50 0,2 C 6,2 C -0,4 C 0,2 C 0,2 C 0,0 C 88 % 93 % 1011,8 hPa 0,0 l/m 0,8 km/h (0 Bft) O 90 0 min -1,5 C 0,2 C 0,0 km/h (0 Bft)
07.12.2021 08:55 0,2 C 6,2 C -0,1 C 0,4 C 0,4 C 0,2 C 88 % 93 % 1011,8 hPa 0,0 l/m 0,5 km/h (0 Bft) N-NO 22 0 min -1,5 C 0,4 C 0,0 km/h (0 Bft)
07.12.2021 09:00 0,3 C 6,2 C -0,1 C 0,6 C 0,6 C 0,3 C 88 % 93 % 1011,8 hPa 0,0 l/m 0,0 km/h (0 Bft) N-NO 22 0 min -1,4 C 0,6 C 0,0 km/h (0 Bft)
07.12.2021 09:05 0,5 C 6,2 C 0,1 C 0,8 C 0,8 C 0,3 C 88 % 93 % 1011,8 hPa 0,0 l/m 0,2 km/h (0 Bft) O-SO 112 0 min -1,3 C 0,8 C 0,0 km/h (0 Bft)
07.12.2021 09:10 0,5 C 6,2 C 0,1 C 1,0 C 1,0 C 0,5 C 88 % 93 % 1011,8 hPa 0,0 l/m 0,2 km/h (0 Bft) S 180 0 min -1,3 C 1,0 C 0,0 km/h (0 Bft)
07.12.2021 09:15 0,5 C 6,2 C 0,2 C 1,1 C 1,1 C 0,6 C 88 % 93 % 1011,8 hPa 0,0 l/m 0,0 km/h (0 Bft) S 180 0 min -1,3 C 1,1 C 0,0 km/h (0 Bft)
07.12.2021 09:20 0,7 C 6,2 C 0,2 C 1,3 C 1,3 C 0,6 C 88 % 93 % 1011,8 hPa 0,0 l/m 0,0 km/h (0 Bft) S 180 0 min -1,1 C 1,3 C 0,0 km/h (0 Bft)
07.12.2021 09:25 0,7 C 6,2 C 0,2 C 1,4 C 1,4 C 0,7 C 88 % 92 % 1011,8 hPa 0,0 l/m 0,0 km/h (0 Bft) O-NO 67 0 min -1,1 C 1,4 C 0,0 km/h (0 Bft)
07.12.2021 09:30 0,8 C 6,2 C 0,3 C 1,4 C 1,4 C 0,6 C 87 % 92 % 1012,4 hPa 0,0 l/m 0,0 km/h (0 Bft) W 270 0 min -1,1 C 1,4 C 0,0 km/h (0 Bft)
07.12.2021 09:35 0,9 C 6,2 C 0,4 C 1,4 C 1,4 C 0,5 C 87 % 92 % 1012,4 hPa 0,0 l/m 0,0 km/h (0 Bft) W 270 0 min -1,0 C 1,4 C 0,0 km/h (0 Bft)
07.12.2021 09:40 0,9 C 6,2 C 0,5 C 1,5 C 1,5 C 0,6 C 87 % 92 % 1012,4 hPa 0,0 l/m 0,0 km/h (0 Bft) SW 225 0 min -1,0 C 1,5 C 0,0 km/h (0 Bft)
07.12.2021 09:45 1,0 C 6,2 C 0,6 C 1,7 C 1,7 C 0,7 C 88 % 92 % 1012,4 hPa 0,0 l/m 0,0 km/h (0 Bft) O 90 0 min -0,8 C 1,7 C 0,0 km/h (0 Bft)
07.12.2021 09:50 1,1 C 6,2 C 0,7 C 1,8 C 1,8 C 0,7 C 88 % 92 % 1012,0 hPa 0,0 l/m 0,0 km/h (0 Bft) O-NO 67 0 min -0,7 C 1,8 C 0,0 km/h (0 Bft)
07.12.2021 09:55 1,1 C 6,1 C 0,7 C 1,9 C 1,9 C 0,8 C 88 % 91 % 1012,0 hPa 0,0 l/m 0,0 km/h (0 Bft) O-NO 67 0 min -0,7 C 1,9 C 0,0 km/h (0 Bft)
07.12.2021 10:00 1,2 C 6,1 C 0,8 C 1,9 C 1,9 C 0,7 C 87 % 92 % 1012,0 hPa 0,0 l/m 0,0 km/h (0 Bft) O-NO 67 0 min -0,7 C 1,9 C 0,0 km/h (0 Bft)
07.12.2021 10:05 1,2 C 6,1 C 0,9 C 2,0 C 2,0 C 0,8 C 87 % 92 % 1012,0 hPa 0,0 l/m 0,0 km/h (0 Bft) O-NO 67 0 min -0,7 C 2,0 C 0,0 km/h (0 Bft)
07.12.2021 10:10 1,2 C 6,1 C 0,9 C 2,2 C 2,2 C 1,0 C 87 % 92 % 1012,0 hPa 0,0 l/m 0,0 km/h (0 Bft) O-NO 67 0 min -0,7 C 2,2 C 0,0 km/h (0 Bft)
07.12.2021 10:15 1,4 C 6,1 C 1,0 C 2,3 C 2,3 C 0,9 C 87 % 92 % 1012,0 hPa 0,0 l/m 0,0 km/h (0 Bft) O-NO 67 0 min -0,5 C 2,3 C 0,0 km/h (0 Bft)
07.12.2021 10:20 1,5 C 6,1 C 1,1 C 2,4 C 2,4 C 0,9 C 87 % 92 % 1012,0 hPa 0,0 l/m 0,0 km/h (0 Bft) O-NO 67 0 min -0,4 C 2,4 C 0,0 km/h (0 Bft)
07.12.2021 10:25 1,5 C 6,1 C 1,2 C 2,4 C 2,4 C 0,9 C 87 % 92 % 1012,0 hPa 0,0 l/m 0,0 km/h (0 Bft) O-NO 67 0 min -0,4 C 2,4 C 0,0 km/h (0 Bft)
07.12.2021 10:30 1,5 C 6,1 C 1,1 C 2,4 C 2,4 C 0,9 C 87 % 92 % 1012,5 hPa 0,0 l/m 0,0 km/h (0 Bft) O-NO 67 0 min -0,4 C 2,4 C 0,0 km/h (0 Bft)
07.12.2021 10:35 1,6 C 6,1 C 1,2 C 2,4 C 2,4 C 0,8 C 86 % 92 % 1012,5 hPa 0,0 l/m 0,0 km/h (0 Bft) O-NO 67 0 min -0,5 C 2,4 C 0,0 km/h (0 Bft)
07.12.2021 10:40 1,6 C 6,1 C 1,2 C 2,4 C 2,4 C 0,8 C 86 % 91 % 1012,5 hPa 0,0 l/m 0,0 km/h (0 Bft) O-NO 67 0 min -0,5 C 2,4 C 0,0 km/h (0 Bft)
07.12.2021 10:45 1,6 C 6,1 C 1,3 C 2,4 C 2,4 C 0,8 C 86 % 91 % 1012,5 hPa 0,0 l/m 0,0 km/h (0 Bft) O-NO 67 0 min -0,5 C 2,4 C 0,0 km/h (0 Bft)
07.12.2021 10:50 1,7 C 6,1 C 1,3 C 2,4 C 2,4 C 0,7 C 86 % 91 % 1012,3 hPa 0,0 l/m 0,0 km/h (0 Bft) O-NO 67 0 min -0,4 C 2,4 C 0,0 km/h (0 Bft)
07.12.2021 10:55 1,8 C 6,1 C 1,5 C 2,6 C 2,6 C 0,8 C 86 % 91 % 1012,3 hPa 0,0 l/m 0,0 km/h (0 Bft) O-NO 67 0 min -0,3 C 2,6 C 0,0 km/h (0 Bft)
07.12.2021 11:00 1,8 C 6,1 C 1,5 C 2,8 C 2,8 C 1,0 C 86 % 91 % 1012,3 hPa 0,0 l/m 0,0 km/h (0 Bft) O-NO 67 0 min -0,3 C 2,8 C 0,0 km/h (0 Bft)
07.12.2021 11:05 1,9 C 6,1 C 1,5 C 2,9 C 2,9 C 1,0 C 86 % 91 % 1012,3 hPa 0,0 l/m 0,0 km/h (0 Bft) O-NO 67 0 min -0,2 C 2,9 C 0,0 km/h (0 Bft)
07.12.2021 11:10 2,0 C 6,1 C 1,6 C 2,9 C 2,9 C 0,9 C 86 % 91 % 1012,2 hPa 0,0 l/m 0,0 km/h (0 Bft) O-NO 67 0 min -0,1 C 2,9 C 0,0 km/h (0 Bft)
07.12.2021 11:15 2,1 C 6,1 C 1,6 C 2,8 C 2,8 C 0,7 C 86 % 91 % 1012,2 hPa 0,0 l/m 0,0 km/h (0 Bft) O-NO 67 0 min 0,0 C 2,8 C 0,0 km/h (0 Bft)
07.12.2021 11:20 2,0 C 6,1 C 1,6 C 2,7 C 2,7 C 0,7 C 86 % 91 % 1012,2 hPa 0,0 l/m 0,0 km/h (0 Bft) O-NO 67 0 min -0,1 C 2,7 C 0,0 km/h (0 Bft)
07.12.2021 11:25 2,0 C 6,2 C 1,6 C 2,5 C 2,5 C 0,5 C 86 % 91 % 1012,2 hPa 0,0 l/m 0,0 km/h (0 Bft) O-NO 67 0 min -0,1 C 2,5 C 0,0 km/h (0 Bft)
07.12.2021 11:30 2,0 C 6,2 C 1,6 C 2,5 C 2,5 C 0,5 C 86 % 91 % 1012,5 hPa 0,0 l/m 0,0 km/h (0 Bft) O-NO 67 0 min -0,1 C 2,5 C 0,0 km/h (0 Bft)
07.12.2021 11:35 2,0 C 6,2 C 1,7 C 2,5 C 2,5 C 0,5 C 86 % 91 % 1012,5 hPa 0,0 l/m 0,0 km/h (0 Bft) O-NO 67 0 min -0,1 C 2,5 C 0,0 km/h (0 Bft)
07.12.2021 11:40 2,0 C 6,2 C 1,7 C 2,5 C 2,5 C 0,5 C 86 % 91 % 1012,5 hPa 0,0 l/m 0,0 km/h (0 Bft) O-NO 67 0 min -0,1 C 2,5 C 0,0 km/h (0 Bft)
07.12.2021 11:45 2,1 C 6,2 C 1,7 C 2,5 C 2,5 C 0,4 C 85 % 90 % 1012,5 hPa 0,0 l/m 0,0 km/h (0 Bft) O-NO 67 0 min -0,2 C 2,5 C 0,0 km/h (0 Bft)
07.12.2021 11:50 2,1 C 6,2 C 1,8 C 2,5 C 2,5 C 0,4 C 85 % 91 % 1012,3 hPa 0,0 l/m 0,0 km/h (0 Bft) O-NO 67 0 min -0,2 C 2,5 C 0,0 km/h (0 Bft)
07.12.2021 11:55 2,1 C 6,2 C 1,7 C 2,6 C 2,6 C 0,5 C 85 % 90 % 1012,3 hPa 0,0 l/m 0,0 km/h (0 Bft) O-NO 67 0 min -0,2 C 2,6 C 0,0 km/h (0 Bft)
07.12.2021 12:00 2,2 C 6,2 C 1,8 C 2,6 C 2,6 C 0,4 C 85 % 90 % 1012,3 hPa 0,0 l/m 0,0 km/h (0 Bft) O-NO 67 0 min -0,1 C 2,6 C 0,0 km/h (0 Bft)
07.12.2021 12:05 2,3 C 6,2 C 1,8 C 2,9 C 2,9 C 0,6 C 85 % 90 % 1012,3 hPa 0,0 l/m 0,0 km/h (0 Bft) O-NO 67 0 min 0,0 C 2,9 C 0,0 km/h (0 Bft)
07.12.2021 12:10 2,2 C 6,1 C 2,0 C 3,0 C 3,0 C 0,8 C 85 % 90 % 1012,3 hPa 0,0 l/m 0,0 km/h (0 Bft) O-NO 67 0 min -0,1 C 3,0 C 0,0 km/h (0 Bft)
07.12.2021 12:15 2,3 C 6,2 C 1,9 C 3,0 C 3,0 C 0,7 C 85 % 90 % 1012,3 hPa 0,0 l/m 0,0 km/h (0 Bft) O-NO 67 0 min 0,0 C 3,0 C 0,0 km/h (0 Bft)
07.12.2021 12:20 2,3 C 6,2 C 2,0 C 3,1 C 3,1 C 0,8 C 85 % 90 % 1012,3 hPa 0,0 l/m 0,0 km/h (0 Bft) O-NO 67 0 min 0,0 C 3,1 C 0,0 km/h (0 Bft)
07.12.2021 12:25 2,4 C 6,2 C 2,1 C 3,2 C 3,2 C 0,8 C 85 % 91 % 1012,3 hPa 0,0 l/m 0,0 km/h (0 Bft) O-NO 67 0 min 0,1 C 3,2 C 0,0 km/h (0 Bft)
07.12.2021 12:30 2,4 C 6,2 C 2,1 C 3,2 C 3,2 C 0,8 C 85 % 91 % 1012,1 hPa 0,0 l/m 0,0 km/h (0 Bft) O-NO 67 0 min 0,1 C 3,2 C 0,0 km/h (0 Bft)
07.12.2021 12:35 2,4 C 6,2 C 2,1 C 3,2 C 3,2 C 0,8 C 85 % 91 % 1012,1 hPa 0,0 l/m 0,0 km/h (0 Bft) O-NO 67 0 min 0,1 C 3,2 C 0,0 km/h (0 Bft)
07.12.2021 12:40 2,4 C 6,2 C 2,3 C 3,3 C 3,3 C 0,9 C 85 % 91 % 1012,1 hPa 0,7 l/m 0,0 km/h (0 Bft) O-NO 67 0 min 0,1 C 3,3 C 0,0 km/h (0 Bft)
07.12.2021 12:45 2,4 C 6,2 C 2,3 C 3,4 C 3,4 C 1,0 C 86 % 91 % 1012,1 hPa 0,0 l/m 0,0 km/h (0 Bft) O-NO 67 0 min 0,3 C 3,4 C 0,0 km/h (0 Bft)
07.12.2021 12:50 2,4 C 6,2 C 2,3 C 3,3 C 3,3 C 0,9 C 86 % 91 % 1012,7 hPa 0,0 l/m 0,0 km/h (0 Bft) O-NO 67 0 min 0,3 C 3,3 C 0,0 km/h (0 Bft)
07.12.2021 12:55 2,4 C 6,2 C 2,3 C 3,3 C 3,3 C 0,9 C 86 % 91 % 1012,7 hPa 0,0 l/m 0,0 km/h (0 Bft) O-NO 67 0 min 0,3 C 3,3 C 0,0 km/h (0 Bft)
07.12.2021 13:00 2,4 C 6,2 C 2,2 C 3,2 C 3,2 C 0,8 C 86 % 91 % 1012,7 hPa 0,0 l/m 0,0 km/h (0 Bft) NO 45 0 min 0,3 C 3,2 C 0,0 km/h (0 Bft)
07.12.2021 13:05 2,5 C 6,2 C 2,3 C 3,1 C 3,1 C 0,6 C 86 % 91 % 1012,7 hPa 0,0 l/m 0,0 km/h (0 Bft) NO 45 0 min 0,4 C 3,1 C 0,0 km/h (0 Bft)
07.12.2021 13:10 2,4 C 6,4 C 2,3 C 3,2 C 3,2 C 0,8 C 86 % 91 % 1012,1 hPa 0,0 l/m 0,0 km/h (0 Bft) NO 45 0 min 0,3 C 3,2 C 0,0 km/h (0 Bft)
07.12.2021 13:15 2,5 C 6,2 C 2,3 C 3,2 C 3,2 C 0,7 C 86 % 91 % 1012,1 hPa 0,0 l/m 0,0 km/h (0 Bft) NO 45 0 min 0,4 C 3,2 C 0,0 km/h (0 Bft)
07.12.2021 13:20 2,5 C 6,2 C 2,3 C 3,2 C 3,2 C 0,7 C 86 % 91 % 1012,1 hPa 0,0 l/m 0,0 km/h (0 Bft) NO 45 0 min 0,4 C 3,2 C 0,0 km/h (0 Bft)
07.12.2021 13:25 2,5 C 6,2 C 2,3 C 3,2 C 3,2 C 0,7 C 86 % 91 % 1012,1 hPa 0,0 l/m 0,0 km/h (0 Bft) NO 45 0 min 0,4 C 3,2 C 0,0 km/h (0 Bft)
07.12.2021 13:30 2,5 C 6,2 C 2,3 C 3,2 C 3,2 C 0,7 C 86 % 91 % 1012,5 hPa 0,0 l/m 0,0 km/h (0 Bft) N-NW 337 0 min 0,4 C 3,2 C 0,0 km/h (0 Bft)
07.12.2021 13:35 2,5 C 6,2 C 2,2 C 3,0 C 3,0 C 0,5 C 86 % 91 % 1012,5 hPa 0,0 l/m 0,0 km/h (0 Bft) N-NW 337 0 min 0,4 C 3,0 C 0,0 km/h (0 Bft)
07.12.2021 13:40 2,4 C 6,2 C 2,2 C 3,0 C 3,0 C 0,6 C 86 % 91 % 1012,5 hPa 0,0 l/m 0,0 km/h (0 Bft) N-NW 337 0 min 0,3 C 3,0 C 0,0 km/h (0 Bft)
07.12.2021 13:45 2,4 C 6,2 C 2,1 C 3,0 C 3,0 C 0,6 C 86 % 91 % 1012,5 hPa 0,0 l/m 0,0 km/h (0 Bft) N-NW 337 0 min 0,3 C 3,0 C 0,0 km/h (0 Bft)
07.12.2021 13:50 2,4 C 6,2 C 2,2 C 3,0 C 3,0 C 0,6 C 86 % 91 % 1012,4 hPa 0,0 l/m 0,0 km/h (0 Bft) N-NW 337 0 min 0,3 C 3,0 C 0,0 km/h (0 Bft)
07.12.2021 13:55 2,5 C 6,2 C 2,3 C 3,0 C 3,0 C 0,5 C 86 % 91 % 1012,4 hPa 0,0 l/m 0,0 km/h (0 Bft) N-NW 337 0 min 0,4 C 3,0 C 0,0 km/h (0 Bft)
07.12.2021 14:00 2,5 C 6,2 C 2,2 C 3,1 C 3,1 C 0,6 C 86 % 91 % 1012,4 hPa 0,0 l/m 0,0 km/h (0 Bft) N-NW 337 0 min 0,4 C 3,1 C 0,0 km/h (0 Bft)
07.12.2021 14:05 2,5 C 6,2 C 2,2 C 3,1 C 3,1 C 0,6 C 86 % 91 % 1012,4 hPa 0,0 l/m 0,3 km/h (0 Bft) W-SW 247 0 min 0,4 C 3,1 C 0,0 km/h (0 Bft)
07.12.2021 14:10 2,5 C 6,2 C 2,2 C 3,0 C 3,0 C 0,5 C 86 % 91 % 1012,6 hPa 0,0 l/m 0,3 km/h (0 Bft) W-SW 247 0 min 0,4 C 3,0 C 0,0 km/h (0 Bft)
07.12.2021 14:15 2,5 C 6,4 C 2,3 C 3,0 C 3,0 C 0,5 C 86 % 91 % 1012,6 hPa 0,0 l/m 0,0 km/h (0 Bft) W-SW 247 0 min 0,4 C 3,0 C 0,0 km/h (0 Bft)
07.12.2021 14:20 2,5 C 6,4 C 2,2 C 3,0 C 3,0 C 0,5 C 86 % 91 % 1012,6 hPa 0,0 l/m 0,0 km/h (0 Bft) W-SW 247 0 min 0,4 C 3,0 C 0,0 km/h (0 Bft)
07.12.2021 14:25 2,5 C 6,4 C 2,2 C 2,9 C 2,9 C 0,4 C 86 % 91 % 1012,6 hPa 0,0 l/m 0,0 km/h (0 Bft) S-SW 202 0 min 0,4 C 2,9 C 0,0 km/h (0 Bft)
07.12.2021 14:30 2,5 C 6,4 C 2,1 C 2,8 C 2,8 C 0,3 C 86 % 91 % 1013,1 hPa 0,0 l/m 0,0 km/h (0 Bft) SW 225 0 min 0,4 C 2,8 C 0,0 km/h (0 Bft)
07.12.2021 14:35 2,5 C 6,4 C 2,1 C 2,7 C 2,7 C 0,2 C 86 % 91 % 1013,1 hPa 0,0 l/m 0,0 km/h (0 Bft) S 180 0 min 0,4 C 2,7 C 0,0 km/h (0 Bft)
07.12.2021 14:40 2,4 C 6,4 C 2,1 C 2,7 C 2,7 C 0,3 C 86 % 91 % 1013,1 hPa 0,0 l/m 0,2 km/h (0 Bft) NW 315 0 min 0,3 C 2,7 C 1,6 km/h (1 Bft)
07.12.2021 14:45 2,4 C 6,4 C 2,1 C 2,7 C 2,7 C 0,3 C 86 % 91 % 1013,1 hPa 0,0 l/m 0,3 km/h (0 Bft) S-SO 157 0 min 0,3 C 2,7 C 1,6 km/h (1 Bft)
07.12.2021 14:50 2,4 C 6,3 C 2,1 C 2,7 C 2,7 C 0,3 C 86 % 91 % 1013,0 hPa 0,0 l/m 0,3 km/h (0 Bft) W-SW 247 0 min 0,3 C 2,7 C 0,0 km/h (0 Bft)
07.12.2021 14:55 2,4 C 6,3 C 2,1 C 2,7 C 2,7 C 0,3 C 86 % 91 % 1013,0 hPa 0,0 l/m 0,3 km/h (0 Bft) S-SO 157 0 min 0,3 C 2,7 C 3,2 km/h (1 Bft)
07.12.2021 15:00 2,5 C 6,3 C 2,1 C 2,7 C 2,7 C 0,2 C 86 % 91 % 1013,0 hPa 0,0 l/m 0,5 km/h (0 Bft) S-SO 157 0 min 0,4 C 2,7 C 1,6 km/h (1 Bft)
07.12.2021 15:05 2,5 C 6,3 C 2,1 C 2,7 C 2,7 C 0,2 C 86 % 91 % 1013,0 hPa 0,0 l/m 0,3 km/h (0 Bft) S 180 0 min 0,4 C 2,7 C 0,0 km/h (0 Bft)
07.12.2021 15:10 2,5 C 6,3 C 2,0 C 2,7 C 2,7 C 0,2 C 86 % 90 % 1013,1 hPa 0,0 l/m 0,3 km/h (0 Bft) S-SO 157 0 min 0,4 C 2,7 C 0,0 km/h (0 Bft)
07.12.2021 15:15 2,5 C 6,3 C 2,1 C 2,7 C 2,7 C 0,2 C 86 % 91 % 1013,1 hPa 0,0 l/m 0,3 km/h (0 Bft) O-NO 67 0 min 0,4 C 2,7 C 0,0 km/h (0 Bft)
07.12.2021 15:20 2,5 C 6,3 C 2,0 C 2,7 C 2,7 C 0,2 C 86 % 90 % 1013,1 hPa 0,0 l/m 0,0 km/h (0 Bft) O-NO 67 0 min 0,4 C 2,7 C 0,0 km/h (0 Bft)
07.12.2021 15:25 2,5 C 6,3 C 1,9 C 2,6 C 2,6 C 0,1 C 86 % 90 % 1013,1 hPa 0,0 l/m 0,0 km/h (0 Bft) S 180 0 min 0,4 C 2,6 C 0,0 km/h (0 Bft)
07.12.2021 15:30 2,4 C 6,3 C 1,9 C 2,5 C 2,5 C 0,1 C 86 % 90 % 1013,1 hPa 0,0 l/m 0,2 km/h (0 Bft) S 180 0 min 0,3 C 2,5 C 0,0 km/h (0 Bft)
07.12.2021 15:35 2,4 C 6,4 C 1,9 C 2,5 C 2,5 C 0,1 C 86 % 90 % 1013,1 hPa 0,0 l/m 0,6 km/h (0 Bft) SW 225 0 min 0,3 C 2,5 C 1,6 km/h (1 Bft)
07.12.2021 15:40 2,5 C 6,4 C 1,8 C 2,5 C 2,4 C 0,0 C 86 % 91 % 1013,1 hPa 0,0 l/m 0,6 km/h (0 Bft) W-SW 247 0 min 0,4 C 2,4 C 0,0 km/h (0 Bft)
07.12.2021 15:45 2,4 C 6,4 C 1,9 C 2,4 C 2,3 C 0,0 C 86 % 91 % 1013,1 hPa 0,0 l/m 0,2 km/h (0 Bft) W-SW 247 0 min 0,3 C 2,3 C 0,0 km/h (0 Bft)
07.12.2021 15:50 2,4 C 6,4 C 1,9 C 2,4 C 2,3 C 0,0 C 86 % 91 % 1012,8 hPa 0,0 l/m 0,2 km/h (0 Bft) S-SO 157 0 min 0,3 C 2,3 C 0,0 km/h (0 Bft)
07.12.2021 15:55 2,3 C 6,4 C 1,8 C 2,3 C 2,3 C 0,0 C 86 % 91 % 1012,8 hPa 0,0 l/m 0,5 km/h (0 Bft) SO 135 0 min 0,2 C 2,3 C 0,0 km/h (0 Bft)
07.12.2021 16:00 2,3 C 6,4 C 1,9 C 2,3 C 2,3 C 0,0 C 86 % 91 % 1012,8 hPa 0,0 l/m 0,5 km/h (0 Bft) SO 135 0 min 0,2 C 2,3 C 0,0 km/h (0 Bft)
07.12.2021 16:05 2,3 C 6,4 C 1,8 C 2,3 C 2,3 C 0,0 C 86 % 91 % 1012,8 hPa 0,0 l/m 0,2 km/h (0 Bft) SO 135 0 min 0,2 C 2,3 C 0,0 km/h (0 Bft)
07.12.2021 16:10 2,3 C 6,4 C 1,7 C 2,3 C 2,2 C 0,0 C 86 % 91 % 1012,9 hPa 0,0 l/m 0,0 km/h (0 Bft) O-SO 112 0 min 0,2 C 2,2 C 0,0 km/h (0 Bft)
07.12.2021 16:15 2,3 C 6,4 C 1,7 C 2,2 C 2,1 C 0,0 C 86 % 91 % 1012,9 hPa 0,0 l/m 0,0 km/h (0 Bft) O 90 0 min 0,2 C 2,1 C 0,0 km/h (0 Bft)
07.12.2021 16:20 2,2 C 6,4 C 1,7 C 2,2 C 2,1 C 0,0 C 86 % 91 % 1012,9 hPa 0,0 l/m 0,0 km/h (0 Bft) O 90 0 min 0,1 C 2,1 C 0,0 km/h (0 Bft)
07.12.2021 16:25 2,3 C 6,4 C 1,8 C 2,2 C 2,1 C 0,0 C 86 % 91 % 1012,9 hPa 0,0 l/m 0,0 km/h (0 Bft) O 90 0 min 0,2 C 2,1 C 0,0 km/h (0 Bft)
07.12.2021 16:30 2,2 C 6,4 C 1,5 C 2,1 C 1,9 C 0,0 C 86 % 91 % 1012,8 hPa 0,0 l/m 0,0 km/h (0 Bft) O 90 0 min 0,1 C 1,9 C 0,0 km/h (0 Bft)
07.12.2021 16:35 2,1 C 6,4 C 1,4 C 2,0 C 1,7 C 0,0 C 86 % 91 % 1012,8 hPa 0,0 l/m 0,0 km/h (0 Bft) O 90 0 min 0,0 C 1,7 C 0,0 km/h (0 Bft)
07.12.2021 16:40 2,1 C 6,4 C 1,1 C 1,9 C 1,4 C 0,0 C 86 % 91 % 1012,8 hPa 0,0 l/m 0,0 km/h (0 Bft) SW 225 0 min 0,0 C 1,4 C 0,0 km/h (0 Bft)
07.12.2021 16:45 1,9 C 6,4 C 1,0 C 1,6 C 1,0 C 0,0 C 86 % 91 % 1012,8 hPa 0,0 l/m 0,0 km/h (0 Bft) SW 225 0 min -0,2 C 1,0 C 0,0 km/h (0 Bft)
07.12.2021 16:50 1,9 C 6,5 C 0,8 C 1,5 C 0,8 C 0,0 C 86 % 91 % 1013,9 hPa 0,0 l/m 0,0 km/h (0 Bft) SW 225 0 min -0,2 C 0,8 C 0,0 km/h (0 Bft)
07.12.2021 16:55 1,7 C 6,5 C 0,8 C 1,4 C 0,8 C 0,0 C 86 % 91 % 1013,9 hPa 0,0 l/m 0,0 km/h (0 Bft) SW 225 0 min -0,4 C 0,8 C 0,0 km/h (0 Bft)
07.12.2021 17:00 1,6 C 6,5 C 0,9 C 1,3 C 0,8 C 0,0 C 86 % 92 % 1013,9 hPa 0,0 l/m 0,0 km/h (0 Bft) SW 225 0 min -0,5 C 0,8 C 0,0 km/h (0 Bft)
07.12.2021 17:05 1,6 C 6,5 C 0,9 C 1,4 C 0,9 C 0,0 C 86 % 92 % 1013,9 hPa 0,0 l/m 0,0 km/h (0 Bft) SW 225 0 min -0,5 C 0,9 C 0,0 km/h (0 Bft)
07.12.2021 17:10 1,5 C 6,5 C 0,9 C 1,3 C 1,0 C 0,0 C 86 % 92 % 1013,1 hPa 0,0 l/m 0,0 km/h (0 Bft) SW 225 0 min -0,6 C 1,0 C 0,0 km/h (0 Bft)
07.12.2021 17:15 1,5 C 6,5 C 0,8 C 1,4 C 1,1 C 0,0 C 86 % 92 % 1013,1 hPa 0,0 l/m 0,0 km/h (0 Bft) SW 225 0 min -0,6 C 1,1 C 0,0 km/h (0 Bft)
07.12.2021 17:20 1,5 C 6,5 C 0,9 C 1,4 C 1,2 C 0,0 C 86 % 92 % 1013,1 hPa 0,0 l/m 0,0 km/h (0 Bft) S 180 0 min -0,6 C 1,2 C 0,0 km/h (0 Bft)
07.12.2021 17:25 1,6 C 6,5 C 1,0 C 1,5 C 1,4 C 0,0 C 87 % 92 % 1013,1 hPa 0,0 l/m 0,0 km/h (0 Bft) S-SW 202 0 min -0,3 C 1,4 C 0,0 km/h (0 Bft)
07.12.2021 17:30 1,6 C 6,5 C 1,0 C 1,5 C 1,4 C 0,0 C 87 % 92 % 1013,3 hPa 0,0 l/m 0,0 km/h (0 Bft) S 180 0 min -0,3 C 1,4 C 0,0 km/h (0 Bft)
07.12.2021 17:35 1,7 C 6,5 C 1,0 C 1,6 C 1,4 C 0,0 C 87 % 92 % 1013,3 hPa 0,0 l/m 0,0 km/h (0 Bft) S 180 0 min -0,2 C 1,4 C 0,0 km/h (0 Bft)
07.12.2021 17:40 1,6 C 6,5 C 1,0 C 1,5 C 1,4 C 0,0 C 87 % 92 % 1013,3 hPa 0,0 l/m 0,0 km/h (0 Bft) S 180 0 min -0,3 C 1,4 C 0,0 km/h (0 Bft)
07.12.2021 17:45 1,5 C 6,5 C 0,9 C 1,5 C 1,4 C 0,0 C 87 % 92 % 1013,3 hPa 0,0 l/m 0,0 km/h (0 Bft) O 90 0 min -0,4 C 1,4 C 0,0 km/h (0 Bft)
07.12.2021 17:50 1,6 C 6,5 C 1,0 C 1,5 C 1,4 C 0,0 C 87 % 92 % 1012,9 hPa 0,0 l/m 0,0 km/h (0 Bft) O-SO 112 0 min -0,3 C 1,4 C 0,0 km/h (0 Bft)
07.12.2021 17:55 1,6 C 6,5 C 1,1 C 1,5 C 1,4 C 0,0 C 87 % 92 % 1012,9 hPa 0,0 l/m 0,0 km/h (0 Bft) O 90 0 min -0,3 C 1,4 C 0,0 km/h (0 Bft)
07.12.2021 18:00 1,6 C 6,5 C 1,1 C 1,6 C 1,5 C 0,0 C 87 % 92 % 1012,9 hPa 0,0 l/m 0,0 km/h (0 Bft) O 90 0 min -0,3 C 1,5 C 0,0 km/h (0 Bft)
07.12.2021 18:05 1,6 C 6,5 C 1,1 C 1,6 C 1,5 C 0,0 C 87 % 92 % 1012,9 hPa 0,0 l/m 0,0 km/h (0 Bft) SW 225 0 min -0,3 C 1,5 C 0,0 km/h (0 Bft)
07.12.2021 18:10 1,6 C 6,5 C 1,1 C 1,6 C 1,5 C 0,0 C 87 % 92 % 1013,1 hPa 0,0 l/m 0,0 km/h (0 Bft) S 180 0 min -0,3 C 1,5 C 0,0 km/h (0 Bft)
07.12.2021 18:15 1,6 C 6,5 C 1,1 C 1,6 C 1,5 C 0,0 C 87 % 92 % 1013,1 hPa 0,0 l/m 0,0 km/h (0 Bft) S 180 0 min -0,3 C 1,5 C 0,0 km/h (0 Bft)
07.12.2021 18:20 1,6 C 6,5 C 1,1 C 1,6 C 1,5 C 0,0 C 87 % 92 % 1013,1 hPa 0,0 l/m 0,0 km/h (0 Bft) SW 225 0 min -0,3 C 1,5 C 0,0 km/h (0 Bft)
07.12.2021 18:25 1,7 C 6,5 C 1,1 C 1,6 C 1,4 C 0,0 C 88 % 92 % 1013,1 hPa 0,0 l/m 0,0 km/h (0 Bft) SW 225 0 min -0,1 C 1,4 C 0,0 km/h (0 Bft)
07.12.2021 18:30 1,6 C 6,5 C 1,1 C 1,5 C 1,4 C 0,0 C 88 % 92 % 1012,6 hPa 0,0 l/m 0,0 km/h (0 Bft) O 90 0 min -0,2 C 1,4 C 0,0 km/h (0 Bft)
07.12.2021 18:35 1,7 C 6,5 C 1,1 C 1,6 C 1,4 C 0,0 C 88 % 92 % 1012,6 hPa 0,0 l/m 0,0 km/h (0 Bft) O 90 0 min -0,1 C 1,4 C 0,0 km/h (0 Bft)
07.12.2021 18:40 1,6 C 6,5 C 1,1 C 1,6 C 1,5 C 0,0 C 88 % 93 % 1012,6 hPa 0,0 l/m 0,0 km/h (0 Bft) O 90 0 min -0,2 C 1,5 C 0,0 km/h (0 Bft)
07.12.2021 18:45 1,6 C 6,5 C 1,1 C 1,6 C 1,6 C 0,0 C 88 % 92 % 1012,6 hPa 0,0 l/m 0,0 km/h (0 Bft) O 90 0 min -0,2 C 1,6 C 0,0 km/h (0 Bft)
07.12.2021 18:50 1,6 C 6,5 C 1,1 C 1,6 C 1,5 C 0,0 C 88 % 92 % 1012,8 hPa 0,0 l/m 0,0 km/h (0 Bft) S 180 0 min -0,2 C 1,5 C 0,0 km/h (0 Bft)
07.12.2021 18:55 1,6 C 6,5 C 1,1 C 1,5 C 1,4 C 0,0 C 88 % 92 % 1012,8 hPa 0,0 l/m 0,0 km/h (0 Bft) S 180 0 min -0,2 C 1,4 C 0,0 km/h (0 Bft)
07.12.2021 19:00 1,6 C 6,5 C 1,0 C 1,5 C 1,4 C 0,0 C 88 % 92 % 1012,8 hPa 0,0 l/m 0,0 km/h (0 Bft) S 180 0 min -0,2 C 1,4 C 0,0 km/h (0 Bft)
07.12.2021 19:05 1,6 C 6,5 C 0,9 C 1,5 C 1,3 C 0,0 C 88 % 92 % 1012,8 hPa 0,0 l/m 0,0 km/h (0 Bft) S 180 0 min -0,2 C 1,3 C 0,0 km/h (0 Bft)
07.12.2021 19:10 1,6 C 6,5 C 0,9 C 1,5 C 1,2 C 0,0 C 88 % 92 % 1012,8 hPa 0,0 l/m 0,0 km/h (0 Bft) SO 135 0 min -0,2 C 1,2 C 0,0 km/h (0 Bft)
07.12.2021 19:15 1,6 C 6,5 C 0,9 C 1,5 C 1,2 C 0,0 C 88 % 92 % 1012,8 hPa 0,0 l/m 0,0 km/h (0 Bft) S 180 0 min -0,2 C 1,2 C 0,0 km/h (0 Bft)
07.12.2021 19:20 1,5 C 6,5 C 0,9 C 1,4 C 1,3 C 0,0 C 88 % 93 % 1012,8 hPa 0,0 l/m 0,0 km/h (0 Bft) S 180 0 min -0,3 C 1,3 C 0,0 km/h (0 Bft)
07.12.2021 19:25 1,5 C 6,5 C 0,9 C 1,4 C 1,2 C 0,0 C 88 % 93 % 1012,8 hPa 0,0 l/m 0,0 km/h (0 Bft) S 180 0 min -0,3 C 1,2 C 0,0 km/h (0 Bft)
07.12.2021 19:30 1,5 C 6,5 C 0,9 C 1,4 C 1,2 C 0,0 C 88 % 93 % 1012,4 hPa 0,0 l/m 0,0 km/h (0 Bft) S 180 0 min -0,3 C 1,2 C 0,0 km/h (0 Bft)
07.12.2021 19:35 1,5 C 6,5 C 0,9 C 1,4 C 1,2 C 0,0 C 88 % 93 % 1012,4 hPa 0,0 l/m 0,0 km/h (0 Bft) S 180 0 min -0,3 C 1,2 C 0,0 km/h (0 Bft)
07.12.2021 19:40 1,5 C 6,5 C 0,9 C 1,4 C 1,2 C 0,0 C 88 % 93 % 1012,4 hPa 0,0 l/m 0,0 km/h (0 Bft) SO 135 0 min -0,3 C 1,2 C 0,0 km/h (0 Bft)
07.12.2021 19:45 1,5 C 6,6 C 0,9 C 1,4 C 1,2 C 0,0 C 88 % 93 % 1012,4 hPa 0,0 l/m 0,0 km/h (0 Bft) SO 135 0 min -0,3 C 1,2 C 0,0 km/h (0 Bft)
07.12.2021 19:50 1,4 C 6,6 C 0,9 C 1,3 C 1,2 C 0,0 C 88 % 93 % 1012,1 hPa 0,0 l/m 0,0 km/h (0 Bft) SO 135 0 min -0,4 C 1,2 C 0,0 km/h (0 Bft)
07.12.2021 19:55 1,5 C 6,5 C 0,8 C 1,4 C 1,2 C 0,0 C 88 % 93 % 1012,1 hPa 0,0 l/m 0,0 km/h (0 Bft) SO 135 0 min -0,3 C 1,2 C 0,0 km/h (0 Bft)
07.12.2021 20:00 1,5 C 6,5 C 0,9 C 1,4 C 1,2 C 0,0 C 88 % 93 % 1012,1 hPa 0,0 l/m 0,0 km/h (0 Bft) SO 135 0 min -0,3 C 1,2 C 0,0 km/h (0 Bft)
07.12.2021 20:05 1,5 C 6,5 C 0,9 C 1,4 C 1,3 C 0,0 C 88 % 93 % 1012,1 hPa 0,0 l/m 0,0 km/h (0 Bft) SO 135 0 min -0,3 C 1,3 C 0,0 km/h (0 Bft)
07.12.2021 20:10 1,5 C 6,6 C 0,9 C 1,4 C 1,3 C 0,0 C 88 % 93 % 1012,4 hPa 0,0 l/m 0,0 km/h (0 Bft) SO 135 0 min -0,3 C 1,3 C 0,0 km/h (0 Bft)
07.12.2021 20:15 1,5 C 6,6 C 0,9 C 1,4 C 1,2 C 0,0 C 88 % 93 % 1012,4 hPa 0,0 l/m 0,0 km/h (0 Bft) SO 135 0 min -0,3 C 1,2 C 0,0 km/h (0 Bft)
07.12.2021 20:20 1,5 C 6,6 C 0,9 C 1,4 C 1,2 C 0,0 C 88 % 93 % 1012,4 hPa 0,0 l/m 0,0 km/h (0 Bft) SO 135 0 min -0,3 C 1,2 C 0,0 km/h (0 Bft)
07.12.2021 20:25 1,5 C 6,6 C 0,9 C 1,4 C 1,2 C 0,0 C 88 % 93 % 1012,4 hPa 0,0 l/m 0,0 km/h (0 Bft) SW 225 0 min -0,3 C 1,2 C 0,0 km/h (0 Bft)
07.12.2021 20:30 1,5 C 6,6 C 0,9 C 1,4 C 1,2 C 0,0 C 88 % 93 % 1012,5 hPa 0,0 l/m 0,0 km/h (0 Bft) SW 225 0 min -0,3 C 1,2 C 0,0 km/h (0 Bft)
07.12.2021 20:35 1,5 C 6,6 C 0,8 C 1,4 C 1,1 C 0,0 C 88 % 93 % 1012,5 hPa 0,0 l/m 0,0 km/h (0 Bft) SW 225 0 min -0,3 C 1,1 C 0,0 km/h (0 Bft)
07.12.2021 20:40 1,3 C 6,6 C 0,8 C 1,2 C 1,0 C 0,0 C 88 % 93 % 1012,5 hPa 0,0 l/m 0,0 km/h (0 Bft) SW 225 0 min -0,5 C 1,0 C 0,0 km/h (0 Bft)
07.12.2021 20:45 1,3 C 6,6 C 0,7 C 1,2 C 0,9 C 0,0 C 88 % 93 % 1012,5 hPa 0,0 l/m 0,0 km/h (0 Bft) SW 225 0 min -0,5 C 0,9 C 0,0 km/h (0 Bft)
07.12.2021 20:50 1,2 C 6,6 C 0,7 C 1,1 C 0,9 C 0,0 C 88 % 93 % 1012,4 hPa 0,0 l/m 0,0 km/h (0 Bft) S 180 0 min -0,6 C 0,9 C 0,0 km/h (0 Bft)
07.12.2021 20:55 1,3 C 6,6 C 0,7 C 1,2 C 1,0 C 0,0 C 88 % 93 % 1012,4 hPa 0,0 l/m 0,0 km/h (0 Bft) SO 135 0 min -0,5 C 1,0 C 0,0 km/h (0 Bft)
07.12.2021 21:00 1,3 C 6,6 C 0,8 C 1,2 C 1,1 C 0,0 C 88 % 93 % 1012,4 hPa 0,0 l/m 0,0 km/h (0 Bft) SO 135 0 min -0,5 C 1,1 C 0,0 km/h (0 Bft)
07.12.2021 21:05 1,5 C 6,6 C 0,9 C 1,4 C 1,2 C 0,0 C 88 % 93 % 1012,4 hPa 0,0 l/m 0,0 km/h (0 Bft) W-SW 247 0 min -0,3 C 1,2 C 0,0 km/h (0 Bft)
07.12.2021 21:10 1,5 C 6,5 C 0,9 C 1,4 C 1,3 C 0,0 C 88 % 93 % 1011,9 hPa 0,0 l/m 0,0 km/h (0 Bft) W-SW 247 0 min -0,3 C 1,3 C 0,0 km/h (0 Bft)
07.12.2021 21:15 1,5 C 6,6 C 0,9 C 1,4 C 1,3 C 0,0 C 88 % 93 % 1011,9 hPa 0,0 l/m 0,0 km/h (0 Bft) W-SW 247 0 min -0,3 C 1,3 C 0,0 km/h (0 Bft)
07.12.2021 21:20 1,5 C 6,6 C 0,8 C 1,4 C 1,3 C 0,0 C 89 % 93 % 1011,9 hPa 0,0 l/m 0,0 km/h (0 Bft) W-SW 247 0 min -0,1 C 1,3 C 0,0 km/h (0 Bft)
07.12.2021 21:25 1,4 C 6,6 C 0,8 C 1,3 C 1,2 C 0,0 C 88 % 93 % 1011,9 hPa 0,0 l/m 0,0 km/h (0 Bft) W-SW 247 0 min -0,4 C 1,2 C 0,0 km/h (0 Bft)
07.12.2021 21:30 1,5 C 6,6 C 0,8 C 1,4 C 1,2 C 0,0 C 88 % 93 % 1011,6 hPa 0,0 l/m 0,0 km/h (0 Bft) W-SW 247 0 min -0,3 C 1,2 C 0,0 km/h (0 Bft)
07.12.2021 21:35 1,5 C 6,6 C 0,9 C 1,4 C 1,2 C 0,0 C 89 % 93 % 1011,6 hPa 0,0 l/m 0,0 km/h (0 Bft) W-SW 247 0 min -0,1 C 1,2 C 0,0 km/h (0 Bft)
07.12.2021 21:40 1,5 C 6,6 C 0,9 C 1,4 C 1,2 C 0,0 C 89 % 93 % 1011,6 hPa 0,0 l/m 0,0 km/h (0 Bft) W-SW 247 0 min -0,1 C 1,2 C 0,0 km/h (0 Bft)
07.12.2021 21:45 1,5 C 6,6 C 0,9 C 1,4 C 1,3 C 0,0 C 89 % 93 % 1011,6 hPa 0,0 l/m 0,0 km/h (0 Bft) W-SW 247 0 min -0,1 C 1,3 C 0,0 km/h (0 Bft)
07.12.2021 21:50 1,5 C 6,6 C 0,9 C 1,4 C 1,3 C 0,0 C 89 % 93 % 1011,7 hPa 0,0 l/m 0,0 km/h (0 Bft) W-SW 247 0 min -0,1 C 1,3 C 0,0 km/h (0 Bft)
07.12.2021 21:55 1,5 C 6,6 C 0,9 C 1,4 C 1,3 C 0,0 C 89 % 93 % 1011,7 hPa 0,0 l/m 0,0 km/h (0 Bft) W-SW 247 0 min -0,1 C 1,3 C 0,0 km/h (0 Bft)
07.12.2021 22:00 1,4 C 6,6 C 0,9 C 1,4 C 1,3 C 0,0 C 89 % 93 % 1011,7 hPa 0,0 l/m 0,0 km/h (0 Bft) W-SW 247 0 min -0,2 C 1,3 C 0,0 km/h (0 Bft)
07.12.2021 22:05 1,5 C 6,6 C 0,8 C 1,4 C 1,2 C 0,0 C 89 % 93 % 1011,7 hPa 0,0 l/m 0,0 km/h (0 Bft) W-SW 247 0 min -0,1 C 1,2 C 0,0 km/h (0 Bft)
07.12.2021 22:10 1,4 C 6,6 C 0,8 C 1,3 C 1,1 C 0,0 C 89 % 93 % 1011,7 hPa 0,0 l/m 0,0 km/h (0 Bft) W-SW 247 0 min -0,2 C 1,1 C 0,0 km/h (0 Bft)
07.12.2021 22:15 1,4 C 6,6 C 0,8 C 1,3 C 1,1 C 0,0 C 89 % 93 % 1011,7 hPa 0,0 l/m 0,0 km/h (0 Bft) W-SW 247 0 min -0,2 C 1,1 C 0,0 km/h (0 Bft)
07.12.2021 22:20 1,3 C 6,6 C 0,8 C 1,2 C 1,1 C 0,0 C 89 % 93 % 1011,7 hPa 0,0 l/m 0,0 km/h (0 Bft) W-SW 247 0 min -0,3 C 1,1 C 0,0 km/h (0 Bft)
07.12.2021 22:25 1,3 C 6,6 C 0,8 C 1,2 C 1,1 C 0,0 C 89 % 93 % 1011,7 hPa 0,0 l/m 0,0 km/h (0 Bft) W-SW 247 0 min -0,3 C 1,1 C 0,0 km/h (0 Bft)
07.12.2021 22:30 1,3 C 6,6 C 0,8 C 1,2 C 1,1 C 0,0 C 89 % 93 % 1010,8 hPa 0,0 l/m 0,0 km/h (0 Bft) W-SW 247 0 min -0,3 C 1,1 C 0,0 km/h (0 Bft)
07.12.2021 22:35 1,3 C 6,6 C 0,8 C 1,3 C 1,2 C 0,0 C 89 % 93 % 1010,8 hPa 0,0 l/m 0,0 km/h (0 Bft) W-SW 247 0 min -0,3 C 1,2 C 0,0 km/h (0 Bft)
07.12.2021 22:40 1,5 C 6,6 C 0,8 C 1,4 C 1,2 C 0,0 C 89 % 93 % 1010,8 hPa 0,0 l/m 0,0 km/h (0 Bft) W-SW 247 0 min -0,1 C 1,2 C 0,0 km/h (0 Bft)
07.12.2021 22:45 1,4 C 6,6 C 0,8 C 1,4 C 1,3 C 0,0 C 89 % 93 % 1010,8 hPa 0,0 l/m 0,0 km/h (0 Bft) NO 45 0 min -0,2 C 1,3 C 0,0 km/h (0 Bft)
07.12.2021 22:50 1,4 C 6,6 C 0,8 C 1,4 C 1,3 C 0,0 C 89 % 93 % 1010,5 hPa 0,0 l/m 0,2 km/h (0 Bft) W-SW 247 0 min -0,2 C 1,3 C 0,0 km/h (0 Bft)
07.12.2021 22:55 1,5 C 6,6 C 0,8 C 1,4 C 1,3 C 0,0 C 89 % 93 % 1010,5 hPa 0,0 l/m 0,3 km/h (0 Bft) W-NW 292 0 min -0,1 C 1,3 C 1,8 km/h (1 Bft)
07.12.2021 23:00 1,5 C 6,6 C 0,7 C 1,4 C 1,2 C 0,0 C 89 % 93 % 1010,5 hPa 0,0 l/m 0,2 km/h (0 Bft) W-NW 292 0 min -0,1 C 1,2 C 0,0 km/h (0 Bft)
07.12.2021 23:05 1,5 C 6,6 C 0,7 C 1,4 C 1,1 C 0,0 C 89 % 93 % 1010,5 hPa 0,0 l/m 0,0 km/h (0 Bft) W-NW 292 0 min -0,1 C 1,1 C 0,0 km/h (0 Bft)
07.12.2021 23:10 1,4 C 6,6 C 0,7 C 1,3 C 1,0 C 0,0 C 89 % 93 % 1010,6 hPa 0,0 l/m 0,0 km/h (0 Bft) W-NW 292 0 min -0,2 C 1,0 C 0,0 km/h (0 Bft)
07.12.2021 23:15 1,3 C 6,6 C 0,7 C 1,2 C 1,0 C 0,0 C 89 % 93 % 1010,6 hPa 0,0 l/m 0,0 km/h (0 Bft) W-NW 292 0 min -0,3 C 1,0 C 0,0 km/h (0 Bft)
07.12.2021 23:20 1,3 C 6,6 C 0,7 C 1,2 C 1,0 C 0,0 C 89 % 93 % 1010,6 hPa 0,0 l/m 0,0 km/h (0 Bft) NW 315 0 min -0,3 C 1,0 C 0,0 km/h (0 Bft)
07.12.2021 23:25 1,3 C 6,6 C 0,6 C 1,2 C 0,9 C 0,0 C 89 % 93 % 1010,6 hPa 0,0 l/m 0,0 km/h (0 Bft) NW 315 0 min -0,3 C 0,9 C 0,0 km/h (0 Bft)
07.12.2021 23:30 1,3 C 6,6 C 0,5 C 1,2 C 0,9 C 0,0 C 89 % 93 % 1010,4 hPa 0,0 l/m 0,0 km/h (0 Bft) NW 315 0 min -0,3 C 0,9 C 0,0 km/h (0 Bft)
07.12.2021 23:35 1,2 C 6,6 C 0,5 C 1,1 C 0,9 C 0,0 C 89 % 93 % 1010,4 hPa 0,0 l/m 0,0 km/h (0 Bft) NW 315 0 min -0,4 C 0,9 C 0,0 km/h (0 Bft)
07.12.2021 23:40 1,2 C 6,6 C 0,5 C 1,1 C 0,8 C 0,0 C 89 % 93 % 1010,4 hPa 0,0 l/m 0,0 km/h (0 Bft) NW 315 0 min -0,4 C 0,8 C 0,0 km/h (0 Bft)
07.12.2021 23:45 1,2 C 6,6 C 0,4 C 1,1 C 0,8 C 0,0 C 89 % 93 % 1010,4 hPa 0,0 l/m 0,0 km/h (0 Bft) NW 315 0 min -0,4 C 0,8 C 0,0 km/h (0 Bft)
07.12.2021 23:50 1,2 C 6,6 C 0,4 C 1,0 C 0,7 C 0,0 C 89 % 93 % 1010,2 hPa 0,0 l/m 0,0 km/h (0 Bft) S 180 0 min -0,4 C 0,7 C 0,0 km/h (0 Bft)
07.12.2021 23:55 1,2 C 6,5 C 0,3 C 1,0 C 0,6 C 0,0 C 89 % 93 % 1010,2 hPa 0,0 l/m 0,0 km/h (0 Bft) O 90 0 min -0,4 C 0,6 C 0,0 km/h (0 Bft)
_ Min-Zeit 03:55 09:55 04:10 03:55 04:05 00:00 11:45 11:45 23:50 - 00:00 - - - 03:55 04:05 00:00
Minimum _ -1,7 C 6,1 C -2,6 C -2,1 C -3,0 C 0,0 C 85 % 90 % 1010,2 hPa - 0,0 km/h (0 Bft) - - - -3,3 C -3,0 C 0,0 km/h (0 Bft)
_ Max-Zeit 13:05 00:00 12:40 12:45 12:45 11:05 02:00 04:05 00:10 12:40 06:45 - - 00:00 13:05 12:45 08:25
Maximum _ 2,5 C 6,6 C 2,3 C 3,4 C 3,4 C 1,0 C 89 % 94 % 1014,8 hPa 0,7 l/m 1,4 km/h
O-NO (1 Bft)
- - 0 min 0,4 C 3,4 C 6,6 km/h
O-NO (2 Bft)
Durchschnitt _ 0,7 C 6,4 C 0,2 C 0,8 C 0,5 C 0,2 C 88 % 92 % 1012,3 hPa #0,7 l/m 0,1 km/h (0 Bft) O-NO - #0 min. -1,1 C 0,5 C 0,2 km/h (0 Bft)
2021 www.wetterstation-wechselburg.de